Location: Lynch Observatory
(39.9540°N, 75.1861°W)
Time: 01:12:25
(UTC-04:00)

UWE-3 - Pass Details

Date: 25 April 2024
Orbit: 569 x 652 km, 97.8° (Epoch: 27 May)

Event Time Altitude Azimuth Distance (km) Brightness Sun altitude
Rises 02:37:57 0° 28° (NNE) 2,874 ? -31.9°
Reaches altitude 10° 02:40:34 10° 45° (NE) 1,981 ? -31.6°
Enters shadow 02:43:12 20° 82° (E) 1,435 ? -31.4°
